#timestamp,LO_Frequency,Hit,StdDev 
1707519615.0,286047000.3,N
1707519616.0,286047000.3,N
1707519635.8,286047002.3,N
1707519655.6,286047002.3,N
1707519675.5,286047001.9,N
1707519695.3,286047002.6,N
1707519715.1,286047002.6,N
1707519735.9,286047000.4,N
1707519755.7,286046999.9,N
1707519775.6,286047000.1,N
1707519795.4,286047000.4,N
1707519815.2,286047000.4,N
1707519835.1,286047002.1,N
1707519836.0,286047002.1,N
1707519855.8,286047001.6,N
1707519875.6,286047001.0,N
1707519895.5,286046999.9,N
1707519915.3,286047000.1,N
1707519935.2,286046999.7,N
1707519955.9,286047002.0,N
1707519975.7,286047000.1,N
1707519995.6,286047000.3,N
1707520015.4,286047001.3,N
1707520035.2,286047004.3,Y
1707520055.1,286047002.4,P
1707520056.0,286047002.4,P
1707520075.8,286047000.3,N
1707520095.7,286046998.4,N
1707520115.5,286046998.3,N
1707520135.3,286046996.5,N
1707520155.2,286046999.0,N
1707520175.0,286046998.7,N
1707520175.9,286046998.7,N
1707520195.7,286046998.3,N
1707520215.6,286046997.1,N
1707520235.4,286046997.1,N
1707520255.3,286046998.6,N
1707520275.1,286046998.4,N
1707520276.0,286046998.4,N
1707520295.8,286046997.2,N
1707520315.7,286046996.5,N
1707520335.5,286046998.5,N
1707520355.3,286047000.5,N
1707520375.2,286047000.5,N
1707520395.0,286046999.5,N
1707520395.9,286046999.5,N
1707520415.8,286046996.7,N
1707520435.6,286046999.6,N
1707520455.4,286046996.5,N
1707520475.3,286046999.6,N
1707520495.1,286046999.4,N
1707520515.9,286046998.8,N
1707520535.7,286046998.7,N
1707520555.5,286046998.7,N
1707520575.4,286046999.1,N
1707520595.2,286046999.0,N
1707520615.0,286046997.3,N
1707520615.9,286046997.3,N
1707520635.8,286046996.9,N
1707520655.6,286046997.6,N
1707520675.5,286046997.8,N
1707520695.3,286046997.0,N
1707520715.1,286046996.5,Y
1707520735.9,286046998.7,P
1707520755.7,286046998.5,P
1707520775.5,286046998.1,P
1707520795.4,286046998.1,Y
1707520815.2,286046998.7,P
1707520835.1,286046998.2,P
1707520836.0,286046998.2,P
1707520855.8,286046998.1,Y
1707520875.6,286047002.5,P
1707520895.5,286047002.0,N
1707520915.3,286047002.0,N
1707520935.2,286047002.7,N
1707520955.9,286047002.8,N
1707520975.7,286047002.0,N
1707520995.6,286047002.6,N
1707521015.4,286047001.9,N
1707521035.2,286047001.4,N
1707521055.1,286047001.3,N
1707521056.0,286047001.3,N
1707521075.8,286047001.9,N
1707521095.7,286047002.0,N
1707521115.5,286047002.8,N
1707521135.3,286046999.7,N
1707521155.2,286047000.2,N
1707521175.0,286047001.9,N
1707521175.9,286047001.9,N
1707521195.8,286047001.5,N
1707521215.6,286047004.4,Y
1707521235.4,286047002.5,P
1707521255.3,286047002.5,P
1707521275.1,286047001.5,P
1707521295.8,286047002.8,Y
1707521315.7,286046998.2,P
1707521335.5,286046996.6,N
1707521355.4,286046999.3,N
1707521375.2,286047001.2,N
1707521395.0,286047001.1,N
1707521395.9,286047001.1,N
1707521415.8,286046998.1,N
1707521435.6,286046999.1,N
1707521455.5,286046998.9,N
1707521475.3,286047000.7,N
1707521495.1,286047000.3,N
1707521515.9,286046998.7,N
1707521535.7,286046998.1,N
1707521555.5,286046999.1,N
1707521575.4,286046997.0,N
1707521595.2,286046999.5,N
1707521615.1,286046998.8,N
1707521616.0,286046998.8,N
1707521635.8,286046996.7,N
1707521655.6,286046997.4,N
1707521675.5,286046997.0,N
1707521695.3,286046996.9,N
1707521715.1,286046997.0,N
1707521735.9,286046997.3,N
1707521755.7,286046997.1,N
1707521775.6,286046999.3,N
1707521795.4,286047001.2,N
1707521815.2,286046997.4,N
1707521835.1,286046997.6,N
1707521836.0,286046997.6,N
1707521855.8,286046996.9,N
1707521875.7,286046999.6,N
1707521895.5,286046996.7,N
1707521915.3,286046995.0,Y
1707521935.2,286046999.3,P
1707521955.0,286046999.4,N
1707521955.9,286046999.4,N
1707521975.8,286046999.1,N
1707521995.6,286046998.9,Y
1707522015.4,286047001.2,P
1707522035.3,286047002.3,N
1707522055.1,286047000.3,N
1707522075.8,286047000.6,N
1707522095.7,286047000.8,N
1707522115.5,286047000.9,N
1707522135.4,286046998.4,N
1707522155.2,286046999.7,N
1707522175.0,286047002.7,N
1707522175.9,286047002.7,N
1707522195.8,286047000.3,N
1707522215.6,286046998.1,N
1707522235.4,286047000.8,N
1707522255.3,286046998.3,N
1707522275.1,286046998.5,N
1707522295.9,286046998.1,N
1707522315.7,286046998.1,N
1707522335.5,286047000.7,N
1707522355.4,286046999.5,N
1707522375.2,286046996.6,N
1707522395.1,286046999.6,N
1707522396.0,286046999.6,N
1707522415.8,286046998.9,N
1707522435.6,286047000.8,N
1707522455.5,286046997.0,N
1707522475.3,286046997.5,N
1707522495.1,286046998.0,N
1707522515.9,286046998.7,N
1707522535.7,286046999.0,N
1707522555.6,286047000.8,N
1707522575.4,286046999.0,N
1707522595.2,286046996.6,N
1707522615.1,286046999.3,N
1707522616.0,286046999.3,N
1707522635.8,286046998.6,N
1707522655.6,286046996.6,N
1707522675.5,286046999.6,N
1707522695.3,286046998.7,N
1707522715.2,286047001.0,N
1707522735.9,286046998.5,N
1707522755.7,286046998.8,N
1707522775.6,286046996.9,N
1707522795.4,286046999.0,N
1707522815.3,286046999.3,N
1707522835.1,286046998.8,N
1707522836.0,286046998.8,N
1707522855.8,286046998.9,N
1707522875.7,286046998.9,N
1707522895.5,286046998.7,N
1707522915.4,286046996.5,Y
1707522935.2,286047000.6,P
1707522955.0,286047001.0,N
1707522955.9,286047001.0,N
1707522975.8,286046998.9,N
1707522995.6,286047001.2,N
1707523015.4,286047000.4,N
1707523035.3,286046998.6,N
1707523055.1,286046998.6,N
1707523075.9,286047000.7,N
1707523095.7,286046998.2,N
1707523115.5,286046999.3,N
1707523135.4,286046998.5,N
1707523155.2,286046998.3,N
1707523175.0,286046999.1,N
1707523175.9,286046999.1,N
1707523195.8,286046999.6,N
